Location: Recife
(8.0585°S, 34.8848°W)
Time: 11:02:20
(UTC-03:00)

Transit 2A - Pass Details

Date: 15 April 2026
Orbit: 594 x 950 km, 66.7° (Epoch: 14 May)

Event Time Altitude Azimuth Distance (km) Brightness Sun altitude
Rises 09:10:28 0° 332° (NNW) 2,917 9.0 53.2°
Reaches altitude 10° 09:12:49 10° 328° (NNW) 1,978 8.3 53.7°
Maximum altitude 09:17:08 56° 250° (WSW) 717 6.3 54.6°
Drops below altitude 10° 09:21:21 10° 171° (S) 1,929 8.1 55.5°
Sets 09:23:37 0° 166° (SSE) 2,839 8.9 56.0°
